[[{"header":{"parameterUnit":"m.s-1","parameterCategory":1,"la1":30.2991,"la2":30.254,"lo1":-89.0895,"lo2":-89.0444,"dy":0.0017,"dx":0.0017,"nx":28,"ny":28,"refTime":"2023-10-12T21:00:00:Z","depth":0,"parameterNumber":2,"parameterNumberName":"U-component_of_WINDS"},"data":[0,0,0,0,0,0,0,0,0,0,0,0,0,0,0,0,0,0,0,0,0,0,0,0,0,0,0,0,0,0,0,0,0,0,0,0,0,0,0,0,0,0,0,0,0,0,0,0,0,0,0,0,0,0,0,0,0,0,-2.5866,-2.5867,0,-2.5888,-2.5888,-2.5888,-2.5839,-2.5837,-2.5836,-2.5834,-2.5858,-2.586,-2.5862,0,0,0,0,0,0,0,0,0,0,0,0,0,-2.5784,-2.5785,-2.5866,-2.5867,-2.5867,-2.5888,-2.5888,-2.5888,-2.5839,-2.5837,-2.5835,-2.5833,-2.5858,-2.586,-2.5863,0,0,0,0,0,0,0,0,0,0,0,0,0,-2.5814,-2.5786,-2.5866,-2.5845,-2.5843,-2.5888,-2.5888,-2.5889,-2.5839,-2.5837,-2.5835,-2.5832,-2.5857,-2.586,-2.5863,-2.593,0,0,-2.5873,-2.5874,0,0,0,0,0,0,0,0,-2.5812,-2.5817,-2.5848,-2.5846,-2.5844,-2.5858,-2.5868,-2.5903,-2.584,-2.5841,-2.5834,-2.5831,-2.586,-2.5863,-2.5872,-2.5932,-2.5933,-2.5873,-2.5875,-2.5876,-2.5877,0,0,0,0,0,0,0,-2.581,-2.5816,-2.5875,-2.5848,-2.5846,-2.5834,-2.5836,-2.5874,-2.5864,-2.5841,-2.5837,-2.584,-2.5859,-2.5869,-2.5873,-2.5933,-2.5873,-2.5876,-2.5878,-2.5879,-2.6047,-2.605,0,0,0,0,0,0,-2.5811,-2.5814,-2.5874,-2.5876,-2.5822,-2.5838,-2.584,-2.5856,-2.5863,-2.5862,-2.5842,-2.5838,-2.5865,-2.5869,-2.5873,-2.5952,-2.5876,-2.5879,-2.5881,-2.6045,-2.6048,-2.6051,0,0,0,0,0,0,-2.5809,-2.5816,-2.5873,-2.5844,-2.585,-2.5842,-2.5861,-2.5858,-2.5868,-2.5864,-2.5862,-2.5855,-2.5863,-2.5869,-2.5916,-2.5952,-2.5881,-2.5884,-2.6042,-2.6046,-2.6049,-2.611,0,0,0,0,0,0,-2.5807,-2.5816,-2.5842,-2.5845,-2.5852,-2.5916,-2.5863,-2.586,-2.5874,-2.5868,-2.5876,-2.5875,-2.5862,-2.5912,-2.5919,-2.5955,-2.5886,-2.6039,-2.6044,-2.6048,-2.6105,-2.6116,-2.6125,0,0,0,0,0,-2.5804,-2.5859,-2.5843,-2.5851,-2.5884,-2.5918,-2.5922,-2.5906,-2.5877,-2.5902,-2.5899,-2.5874,-2.5947,-2.5917,-2.5925,-2.5963,-2.6036,-2.6042,-2.6048,-2.6101,-2.6114,-2.6125,0,0,0,0,0,0,-2.5861,-2.5859,-2.5842,-2.5899,-2.5909,-2.591,-2.5941,-2.592,-2.594,-2.5934,-2.5913,-2.5916,-2.5967,-2.5969,-2.5936,-2.6028,-2.5987,-2.5994,-2.6024,-2.6036,-2.6046,-2.6044,-2.5889,0,0,0,0,0,-2.588,-2.5907,-2.5904,-2.5955,-2.5961,-2.595,-2.5965,-2.5951,-2.5961,-2.5965,-2.5966,-2.5977,-2.6002,-2.602,-2.6043,-2.6105,-2.6106,-2.6135,-2.6145,-2.6153,-2.616,-2.6192,-2.6205,-2.607,-2.607,-2.607,0,0,-2.592,-2.5922,-2.5941,-2.5967,-2.5973,-2.6002,-2.5954,-2.5988,-2.6009,-2.5971,-2.6015,-2.6016,-2.6027,-2.6082,-2.6106,-2.6086,-2.6197,-2.616,-2.6167,-2.6169,-2.6199,-2.6212,-2.6224,-2.6074,-2.6073,-2.6072,0,0,-2.6007,-2.6012,-2.6054,-2.6061,-2.607,-2.6063,-2.6073,-2.6077,-2.6076,-2.612,-2.6091,-2.6117,-2.6161,-2.6169,-2.6179,-2.6269,-2.6246,-2.6277,-2.6329,-2.6361,-2.6371,-2.6381,-2.6412,-2.6423,-2.6284,-2.6284,-2.6284,0,-2.6056,-2.6098,-2.6079,-2.6113,-2.6125,-2.6091,-2.6133,-2.6141,-2.6158,-2.6167,-2.6144,-2.6197,-2.6203,-2.6259,-2.628,-2.629,-2.6301,-2.6276,-2.6371,-2.638,-2.6389,-2.6418,-2.643,-2.6288,-2.6287,-2.6287,-2.6287,0,-2.6157,-2.6187,-2.622,-2.6236,-2.6251,-2.629,-2.6277,-2.6295,-2.628,-2.6275,-2.632,-2.6324,-2.6347,-2.6359,-2.6346,-2.6413,-2.64,-2.6374,-2.6333,-2.6406,-2.6433,-2.6444,-2.6293,-2.6292,-2.629,-2.629,0,0,-2.6282,-2.6285,-2.6298,-2.6304,-2.6311,-2.6334,-2.6371,-2.6392,-2.6408,-2.6421,-2.6451,-2.6488,-2.6464,-2.6476,-2.6463,-2.6491,-2.656,-2.6461,-2.6461,-2.6479,-2.6634,-2.6653,-2.6667,-2.6545,-2.6547,-2.6549,-2.6633,0,-2.6367,-2.643,-2.6413,-2.6475,-2.6502,-2.6469,-2.6501,-2.6509,-2.6505,-2.6528,-2.6523,-2.655,-2.6516,-2.6523,-2.6549,-2.6546,-2.6591,-2.654,-2.6573,-2.6574,-2.6571,-2.6681,-2.6702,-2.6781,-2.6644,-2.6646,-2.6647,0,-2.6476,-2.6491,-2.6556,-2.6558,-2.6569,-2.6598,-2.6615,-2.6637,-2.6646,-2.6641,-2.6653,-2.6634,-2.667,-2.6628,-2.6678,-2.6643,-2.6656,-2.6656,-2.6659,-2.6661,-2.6615,-2.6686,-2.6806,-2.6818,-2.6664,-2.6662,-2.6661,0,-2.6559,-2.6597,-2.664,-2.6646,-2.665,-2.6671,-2.6673,-2.6679,-2.6693,-2.6708,-2.6717,-2.6737,-2.6748,-2.6764,-2.6751,-2.6722,-2.6802,-2.676,-2.6799,-2.68,-2.6818,-2.6817,-2.6941,-2.6827,-2.6826,-2.6826,-2.6826,0,-2.6657,-2.6698,-2.6677,-2.6704,-2.6748,-2.6728,-2.6773,-2.6772,-2.6777,-2.6803,-2.6776,-2.6801,-2.6782,-2.6806,-2.6796,-2.6838,-2.6843,-2.684,-2.6837,-2.6842,-2.6843,-2.685,-2.6844,-2.6829,-2.6829,-2.6828,-2.6828,0,-2.6758,-2.6746,-2.6791,-2.679,-2.679,-2.6823,-2.6822,-2.6847,-2.684,-2.6873,-2.688,-2.687,-2.6896,-2.6884,-2.6912,-2.6905,-2.6959,-2.6949,-2.6956,-2.6953,-2.6993,-2.699,-2.7127,-2.7143,-2.7019,-2.702,-2.7021,0,-2.6821,-2.6851,-2.6853,-2.6868,-2.6872,-2.6896,-2.6909,-2.6891,-2.6906,-2.6917,-2.694,-2.6963,-2.6981,-2.7024,-2.702,-2.7041,-2.703,-2.7077,-2.7034,-2.7038,-2.703,-2.7029,-2.7031,-2.7086,-2.7087,-2.7088,-2.7089,0,-2.6933,-2.6925,-2.6945,-2.6963,-2.6979,-2.6992,-2.7003,-2.7017,-2.6998,-2.7016,-2.7042,-2.7055,-2.7083,-2.7106,-2.7124,-2.7127,-2.7105,-2.7103,-2.7113,-2.7119,-2.7121,-2.712,-2.698,-2.71,-2.7099,-2.7098,-2.7098,-2.7097,-2.7017,-2.7042,-2.7046,-2.7069,-2.7075,-2.7085,-2.7108,-2.7103,-2.7124,-2.7144,-2.7132,-2.7162,-2.7169,-2.719,-2.7196,-2.7219,-2.7201,-2.7216,-2.722,-2.7224,-2.7229,-2.7118,-2.7223,-2.7222,-2.7222,-2.7222,-2.7222,0,-2.7127,-2.7128,-2.7149,-2.7164,-2.7182,-2.7159,-2.7169,-2.7186,-2.7212,-2.722,-2.7237,-2.7266,-2.7288,-2.7285,-2.7306,-2.7325,-2.7315,-2.7331,-2.7329,-2.733,-2.7244,-2.7233,-2.7338,-2.7338,-2.7338,-2.7338,-2.7338,-2.7338,-2.7187,-2.7227,-2.722,-2.7263,-2.7264,-2.7292,-2.73,-2.7309,-2.7315,-2.7348,-2.7366,-2.7364,-2.7367,-2.7387,-2.7407,-2.7405,-2.7414,-2.7433,-2.7428,-2.7348,-2.7336,-2.7325,-2.7314,-2.7435,-2.7435,-2.7512,-2.7512,-2.7513]},{"header":{"parameterUnit":"m.s-1","parameterCategory":1,"la1":30.2991,"la2":30.254,"lo1":-89.0895,"lo2":-89.0444,"dy":0.0017,"dx":0.0017,"nx":28,"ny":28,"refTime":"2023-10-12T21:00:00:Z","depth":0,"parameterNumber":3,"parameterNumberName":"V-component_of_WINDS"},"data":[0,0,0,0,0,0,0,0,0,0,0,0,0,0,0,0,0,0,0,0,0,0,0,0,0,0,0,0,0,0,0,0,0,0,0,0,0,0,0,0,0,0,0,0,0,0,0,0,0,0,0,0,0,0,0,0,0,0,-4.2912,-4.2912,0,-4.2965,-4.2965,-4.2966,-4.2913,-4.2911,-4.2908,-4.2907,-4.2958,-4.2961,-4.2964,0,0,0,0,0,0,0,0,0,0,0,0,0,-4.2762,-4.2765,-4.2912,-4.2913,-4.2913,-4.2965,-4.2965,-4.2966,-4.2913,-4.291,-4.2908,-4.2906,-4.2957,-4.2961,-4.2965,0,0,0,0,0,0,0,0,0,0,0,0,0,-4.2822,-4.2766,-4.2912,-4.2893,-4.2892,-4.2964,-4.2965,-4.2966,-4.2914,-4.291,-4.2907,-4.2904,-4.2955,-4.296,-4.2965,-4.3058,0,0,-4.298,-4.2982,0,0,0,0,0,0,0,0,-4.2819,-4.2828,-4.2895,-4.2894,-4.2893,-4.2929,-4.2931,-4.2997,-4.2914,-4.2905,-4.2906,-4.2903,-4.2951,-4.2956,-4.2972,-4.306,-4.3063,-4.2981,-4.2984,-4.2986,-4.2987,0,0,0,0,0,0,0,-4.2815,-4.2825,-4.2933,-4.2896,-4.2895,-4.2881,-4.2886,-4.2943,-4.2945,-4.2906,-4.2902,-4.2909,-4.2949,-4.2968,-4.2973,-4.3063,-4.2981,-4.2985,-4.2988,-4.299,-4.323,-4.3233,0,0,0,0,0,0,-4.2813,-4.2822,-4.2931,-4.2934,-4.2848,-4.2886,-4.2892,-4.2921,-4.2944,-4.2944,-4.2912,-4.2906,-4.2961,-4.2967,-4.2975,-4.3085,-4.2986,-4.299,-4.2993,-4.3226,-4.323,-4.3234,0,0,0,0,0,0,-4.281,-4.2823,-4.2929,-4.2877,-4.289,-4.2892,-4.2925,-4.2923,-4.2941,-4.2948,-4.2948,-4.2931,-4.2959,-4.2968,-4.3038,-4.3086,-4.2993,-4.2997,-4.3222,-4.3227,-4.3232,-4.3305,0,0,0,0,0,0,-4.2806,-4.2823,-4.2859,-4.2878,-4.2893,-4.2992,-4.2928,-4.2927,-4.2951,-4.2944,-4.2966,-4.2966,-4.2957,-4.3031,-4.3043,-4.3091,-4.3001,-4.3218,-4.3225,-4.3231,-4.3299,-4.3312,-4.3324,0,0,0,0,0,-4.2801,-4.2877,-4.2861,-4.2874,-4.2938,-4.2995,-4.3003,-4.2991,-4.2955,-4.299,-4.2995,-4.2966,-4.3079,-4.3038,-4.3051,-4.3102,-4.3215,-4.3223,-4.323,-4.3293,-4.331,-4.3324,0,0,0,0,0,0,-4.2861,-4.2879,-4.2861,-4.2946,-4.297,-4.2986,-4.3031,-4.3009,-4.3043,-4.3035,-4.3018,-4.3024,-4.3098,-4.3107,-4.3061,-4.3192,-4.3141,-4.3151,-4.3184,-4.32,-4.3212,-4.3208,-4.3005,0,0,0,0,0,-4.2885,-4.2931,-4.2943,-4.3016,-4.3029,-4.3028,-4.3053,-4.3042,-4.3065,-4.3074,-4.3084,-4.3107,-4.3147,-4.3174,-4.3212,-4.33,-4.3303,-4.3341,-4.3353,-4.3364,-4.3373,-4.342,-4.3436,-4.3259,-4.3259,-4.3259,0,0,-4.2933,-4.2948,-4.2978,-4.3029,-4.3046,-4.3093,-4.3037,-4.3089,-4.3123,-4.3082,-4.3148,-4.3156,-4.3181,-4.326,-4.3296,-4.327,-4.3423,-4.3374,-4.3382,-4.3385,-4.3429,-4.3446,-4.3461,-4.3264,-4.3263,-4.3262,0,0,-4.3045,-4.3062,-4.3124,-4.3143,-4.3169,-4.3168,-4.3183,-4.3203,-4.3207,-4.3274,-4.3244,-4.3284,-4.3354,-4.3373,-4.3391,-4.3511,-4.3485,-4.3523,-4.3589,-4.3635,-4.3649,-4.3661,-4.3703,-4.3719,-4.3533,-4.3533,-4.3533,0,-4.3101,-4.3172,-4.3159,-4.3214,-4.3237,-4.3202,-4.3265,-4.3283,-4.332,-4.3337,-4.3307,-4.3395,-4.3409,-4.3492,-4.3521,-4.3538,-4.3553,-4.352,-4.3648,-4.366,-4.3672,-4.3711,-4.3727,-4.3537,-4.3537,-4.3536,-4.3536,0,-4.324,-4.3289,-4.3336,-4.3374,-4.3403,-4.3461,-4.3456,-4.3486,-4.3473,-4.3474,-4.3543,-4.3558,-4.3598,-4.3617,-4.3604,-4.3699,-4.3682,-4.3651,-4.3598,-4.3693,-4.373,-4.3745,-4.3544,-4.3542,-4.3541,-4.354,0,0,-4.3391,-4.3421,-4.3439,-4.3456,-4.3483,-4.352,-4.3576,-4.3617,-4.3642,-4.3669,-4.3715,-4.3776,-4.3748,-4.3769,-4.3757,-4.3798,-4.3891,-4.3762,-4.3762,-4.3785,-4.3995,-4.4017,-4.4035,-4.3874,-4.3877,-4.3879,-4.3992,0,-4.3503,-4.3602,-4.3593,-4.3686,-4.3731,-4.37,-4.3749,-4.377,-4.3773,-4.3811,-4.3813,-4.3857,-4.3816,-4.3829,-4.3867,-4.3871,-4.3932,-4.3863,-4.3916,-4.3918,-4.3911,-4.4055,-4.4079,-4.4185,-4.4007,-4.4009,-4.4011,0,-4.3647,-4.368,-4.3779,-4.3799,-4.3818,-4.3862,-4.3898,-4.3935,-4.3958,-4.3957,-4.3982,-4.3963,-4.4019,-4.3966,-4.4042,-4.3995,-4.4016,-4.4022,-4.4025,-4.4029,-4.397,-4.4062,-4.4219,-4.4235,-4.4034,-4.4032,-4.403,0,-4.3747,-4.3816,-4.3884,-4.3899,-4.3925,-4.3957,-4.3968,-4.3989,-4.4013,-4.4044,-4.406,-4.4097,-4.4117,-4.4146,-4.4137,-4.41,-4.4215,-4.4162,-4.4215,-4.4216,-4.4241,-4.4239,-4.4403,-4.4255,-4.4255,-4.4255,-4.4255,0,-4.3873,-4.3935,-4.3929,-4.3971,-4.4039,-4.4026,-4.4093,-4.4101,-4.4119,-4.4161,-4.4136,-4.4175,-4.4162,-4.4201,-4.4195,-4.4259,-4.4268,-4.4268,-4.4266,-4.4271,-4.427,-4.4284,-4.4276,-4.4259,-4.4258,-4.4257,-4.4257,0,-4.3996,-4.3995,-4.4066,-4.4085,-4.4091,-4.414,-4.4155,-4.4194,-4.4195,-4.4248,-4.426,-4.4261,-4.4306,-4.4301,-4.435,-4.4346,-4.4425,-4.4414,-4.4417,-4.4415,-4.4469,-4.4464,-4.4646,-4.4669,-4.4507,-4.4509,-4.451,0,-4.4076,-4.4123,-4.4146,-4.4173,-4.4188,-4.4231,-4.4256,-4.4246,-4.4273,-4.4303,-4.4338,-4.438,-4.4413,-4.4486,-4.449,-4.4528,-4.4517,-4.4578,-4.4522,-4.4525,-4.4517,-4.4515,-4.4519,-4.4589,-4.4591,-4.4593,-4.4594,0,-4.4219,-4.4216,-4.4254,-4.4292,-4.4323,-4.4353,-4.4379,-4.4402,-4.4394,-4.4426,-4.4472,-4.4497,-4.4548,-4.459,-4.4625,-4.4636,-4.4614,-4.4611,-4.4626,-4.4631,-4.4631,-4.4631,-4.4447,-4.4607,-4.4606,-4.4605,-4.4604,-4.4604,-4.4322,-4.4362,-4.4385,-4.4428,-4.4447,-4.4473,-4.451,-4.4516,-4.4554,-4.4596,-4.4587,-4.4638,-4.4659,-4.4705,-4.472,-4.4759,-4.4736,-4.4757,-4.4762,-4.4768,-4.4774,-4.4625,-4.4765,-4.4765,-4.4764,-4.4764,-4.4764,0,-4.4463,-4.4476,-4.4516,-4.4554,-4.4588,-4.4565,-4.4593,-4.4623,-4.4669,-4.4691,-4.4725,-4.4777,-4.4817,-4.4826,-4.4864,-4.4894,-4.4884,-4.4904,-4.4902,-4.4904,-4.4792,-4.4775,-4.4911,-4.4911,-4.4911,-4.4911,-4.4911,-4.4911,-4.454,-4.4606,-4.4606,-4.4681,-4.4694,-4.4745,-4.4763,-4.4786,-4.4804,-4.4863,-4.4897,-4.4903,-4.492,-4.4959,-4.4995,-4.4996,-4.5011,-4.5035,-4.5033,-4.4927,-4.4912,-4.4898,-4.4883,-4.5039,-4.5039,-4.5142,-4.5143,-4.5143]}]]